Погода в Пархаре

Погода в Пархаре : погода сейчас, прогноз погоды и архив. Всё, что Вы хотите узнать о погоде в Пархаре!

Поиск расширенной информации на нашем сайте:

Другие новости

Новости СМИ2

Главная страница сайта

Новости сайта

03.07.2017

Напоминаем, что на нашем специализированном сайте Метеоцентр.Азия вы можете получить высокодетализированные автоматические прогнозы погоды по пунктам России, СНГ и мира в авиационном формате (включающие направление и скорость ветра, видимость, явления погоды, количество и форму облачности, нижнюю и верхнюю границу облачности).


Погода в Пархаре - сегодня

Время (UTC), дата Ветер
(°,м/с) 
Видим.   Явления Облачность Т
(°С)
Тd
(°С)
f(%) Тe
(°С)
Pmin
(гПа)
dP
(гПа)
Po
(мм)
O2
(г/м3)
Тmin Tmax R s Состояние
почвы
18 18.06.18 070 (В) н/о    ясно 
+28 +8.2 29 +28  993.7  709  258    +38       
21 18.06.18 040 (СВ) н/о    ясно 
+24.9 +8.9 36 +26  994.5  0.2  709  260           
00 19.06.18 020 (С) 20000 м    ясно 
+21.8 +10 47 +24  995.6  0.6  709  263           
03 19.06.18 020 (С) 20000 м    ясно 
+27.2 +9.5 33 +29  996  1.3  710  259  +21.6         
06 19.06.18 130 (ЮВ) 20000 м    ясно 
+33.6 +11.1 25 +37  995.3  0.3  710  253  +21.6         
09 19.06.18 130 (ЮВ) 20000 м    ясно 
+36.8 +4.1 13 +37  993.9  -0.9  710  251           
12 19.06.18 130 (ЮВ) 20000 м    ясно 
+37.1 +4.5 13 +37  993.3  -0.6  709  251           
15 19.06.18 тихо ()   20000 м    ясно 
+32.1 +8.5 23 +32  994.1  0.1  709  254    +38.9       
18 19.06.18 360 (С) н/о    ясно 
+28.3 +8.6 29 +28  996.6  1.2      +38.9       
21 19.06.18 020 (С) н/о    ясно 
+24.1 +8.9 38 +25  997.3  0.5  711  262           
00 20.06.18 360 (С) 20000 м    8/8 1000 м 
[Sc]
+26.4 +5.8 27 +26  998.5  1.7  712  261           
06 20.06.18 200 (Ю) 10 км    3/0 средняя 
[Ac trans]
+33.3 +5.1 17 +33  1000.7  1.4  714  256  +23.1         
09 20.06.18 200 (Ю) 10 км    6/6 600 м кучево-дожд. 
[Cb cap]
+37 +5 14 +37  998.1  -1.7  713  252           
12 20.06.18 тихо ()   10 км    3/3 600 м кучево-дожд. 
[Cb cap]
+35.4 +7 17 +35  997.8  -0.4  713  253           
15 20.06.18 тихо ()   10 км    ясно 
+32.8 +11.5 27 +37  998.3  713  254    +38.6       
18 20.06.18 360 (С) н/о    ясно 
+27.3 +8.6 31 +28  999.9  0.8  713  260    +38.6       
21 20.06.18 тихо ()   н/о    ясно 
+23.8 +10.4 43 +27  1000.9  0.2  713  262           
00 21.06.18 360 (С) 10 км    ясно 
+22.4 +10.9 48 +26  1001.5  0.4  714  264           
03 21.06.18 тихо ()   20000 м    ясно 
+26 +10.7 38 +29  1001.9  1.1  714  261  +22.2         
06 21.06.18 130 (ЮВ) 20000 м    ясно 
+32.1 +10.7 27 +35  1000.8  -0.1  714  256  +22.2         
09 21.06.18 160 (Ю) 20000 м    ясно 
+35.4 +7.3 18 +35  998.6  -1.6  713  253           
12 21.06.18 180 (Ю) 20000 м    ясно 
+35.8 +8.6 19 +36  997.5  -1.1  712  252           
15 21.06.18 тихо ()   20000 м    ясно 
+31.9 +6.4 20 +32  998.1  -0.1  712  256    +37.6       
18 21.06.18 тихо ()   н/о    ясно 
+28.1 +7 26 +28  998.7  712  259    +37.6       
21 21.06.18 040 (СВ) н/о    ясно 
+24.2 +8.1 36 +24  999.6  0.2  712  262           
Время (UTC), дата Ветер
(°,м/с) 
Видим.   Явления Облачность Т
(°С)
Тd
(°С)
f(%) Тe
(°С)
Pmin
(гПа)
dP
(гПа)
Po
(мм)
O2
(г/м3)
Тmin Tmax R s Состояние
почвы

Для получения пояснительной информации подведите курсор к названию столбца.

ПОГОДА в Пархаре - архив

Всё, что Вы хотите узнать о погоде в Пархаре - удобно и подробно!

Выберите нужную дату (начиная с 1 января 2015* года) и нажмите кнопку "Найти".
Будут отображены архивные сводки погоды по пункту Пархар, начиная с указанной даты.


Отображать данные в формате CSV (для использования в таблицах Excel)


Внимание! Наш архив погоды предназначен исключительно для личного некоммерческого использования в познавательных целях. Если Вам необходимы официальные справки о состоянии погоды (для производственных, юридических, коммерческих и т.п. целей), обращайтесь в органы Росгидромета.

*Примечание: данная дата относится к архиву по метеостанциям СССР (Россия, СНГ, Балтия).
Архив по метеостанциям Зарубежной Европы и Азии (кроме Китая) хранится 10 дней, по другим регионам земного шара (Китай, Африка, Америка, Австралия, Океания) - 1 день.

Пархар - район местоположения метеостанции


Название, широта, долгота, высота метеостанции:
Пархар 37.5°ш. 69.4°д. 448 м над ур. моря [Таджикистан]

Дополнительная информация

В oтличие oт бoльшинства пoгoдных сайтoв мы публикуем пoдрoбную метеoинфoрмацию в детальнoм прoфессиoнальнoм фoрмате.

Характеристики температуры и влажнoсти вoздуха измеряются на высoте 2 м в тени вдали oт зданий и деревьев.
Скoрoсть ветра измеряется на высoте 10 м (на урoвне рoста челoвека скoрoсть ветра ниже в 1.5-2 раза). Если метеoстанция нахoдится в гoрoде или в лесу, тo скoрoсть ветра занижена на 2-4 м/с пo сравнению с oткрытым местoм. Скoрoсть ветра над акватoриями крупных рек и oзёр, а также на вершинах хoлмoв на 2-5 м/с выше, чем в oбычных услoвиях.
Атмoсфернoе давление в разных тoчках местнoсти мoжет значительнo oтличаться oт давления на метеoстанции, в зависимoсти oт услoвий рельефа (при пoдъёме на 10 м давление пoнижается примернo на 1 мм рт.ст.).